STARLINK-2446, 47844

Orbit data source: Space-Track

STARLINK-2446, 47844 is a payload satellite owned by SpaceX/Seattle (US) in LEO that was launched on Thu, 11 Mar 2021 UTC via an FALCON 9 launch vehicle from the Air Force Eastern Test Range (AFETR). Payload-class satellites include a variety of spacecraft equipped with specific instruments for various scientific and technological missions. These include communications satellites like Starlink; space stations such as the ISS; scientific satellites like the Hubble; Earth observation satellites from companies like Planet Labs, Umbra, and HawkEye 360; GPS; miniature CubeSats for education and research; and military/defense satellites.

Loading next visibility...
Identifier
47844, 2021-018BK
Orbit
LEO
Country
Flag of USUS
Related business
Manufacturer
SpaceX/Seattle
Mission
Operational Commercial Communications
Bus & Motor
STARLINK, Unknown motor
Mass
260 kg wet, ~248 kg dry
Launch date (UTC)
2021-03-11 (5 years ago)
Launch vehicle
FALCON 9
Launch site
Air Force Eastern Test Range (AFETR)
Object type
Payload
Rocket body
Debris
Shape & HBR
Box + 1 Pan, 10.1 m
Radar Cross Section
13.562 m², Large (>1 m²)

Expand to show TLE details & history
Last TLE update: 3 days ago

TLE from 3 days ago
0 STARLINK-2446
1 47844U 21018BK  26170.60279295  .00040019  00000-0  12652-2 0  9997
2 47844  53.1594 131.7884 0001127 105.5361 254.5766 15.32433617292294
Epoch: 2026-06-19T14:28Z
TLE epoch observation values (Epoch: 2026-06-19T14:28:01.310Z)
Latitude
0.00002°
Longitude
6.95355°
Altitude
469.66 km
Speed
7.632 km/s
True Right ascension
08h 47m 09s
True Declination
0° 00' 00"
Sunlit
Object was in daylight at epoch
Visualization orbit readout
Latitude
Unknown
Longitude
Unknown
Altitude
Unknown
Speed
Unknown
Apparent Right ascension
Unknown
Apparent Declination
Unknown
Sunlit
N/A
Visualization observer readout
Local Sidereal Time
02:13:16
Azimuth
Unknown
Elevation
Unknown
Doppler factor
Unknown
Orbital elements
Apogee altitude
469.582 km
Perigee altitude
468.039 km
Semi-major axis
6,846.948 km
Eccentricity
0.00011
Inclination
53.1594°
RAAN
131.7884°
Arg. of periapsis
105.5361°
True anomaly
254.56415°
Mean anomaly
254.5766°
Eccentric anomaly
254.57038°
Mean motion
3.83087 °/min
Orbital period
93.97 mins
BSTAR
0.0012652
Loading maneuver chart data...
Computing Atmospheric mass density...

Documentation

Showing up to 5 results
|